FW8288 Weather Reports


time (UTC)temp
F
wind
direction
speed
knots
gust
knots
rain 1hr
in
rain 24hr
in
rain mn
in
humidity
%
barometer
mb
20260506193106 87 165 0.9 5.2 0.00 0.00 0.00 72 1009.8
20260506191559 87 165 0.9 2.6 0.00 0.00 0.00 73 1010.1
20260506190058 86 165 0.9 5.2 0.00 0.00 0.00 74 1010.3
20260506184600 86 165 0.9 4.3 0.00 0.00 0.00 75 1010.4
20260506183108 85 165 0.9 3.5 0.00 0.00 0.00 77 1010.6
20260506181604 84 165 0.0 2.6 0.00 0.00 0.00 77 1010.8
20260506174604 83 165 0.0 4.3 0.00 0.00 0.00 80 1011.4
20260506173109 83 165 0.0 1.7 0.00 0.00 0.00 80 1011.8
20260506171601 82 165 0.0 2.6 0.00 0.00 0.00 82 1011.7
20260506170109 81 0 0.9 5.2 0.00 0.00 0.00 84 1011.9
20260506164626 80 165 0.9 2.6 0.00 0.00 0.00 87 1011.7
20260506163111 79 0 0.0 0.0 0.00 0.00 0.00 87 1011.9
20260506161601 79 165 0.9 3.5 0.00 0.00 0.00 86 1011.6
20260506160122 79 0 0.0 2.6 0.00 0.00 0.00 86 1011.4
20260506154600 80 165 0.0 1.7 0.00 0.00 0.00 85 1011.4
20260506153058 80 165 0.0 1.7 0.00 0.00 0.00 84 1011.4
20260506151604 80 165 0.0 1.7 0.00 0.00 0.00 85 1011.0
20260506150109 79 0 0.0 2.6 0.00 0.00 0.00 85 1010.8
20260506144605 79 0 0.0 3.5 0.00 0.00 0.00 85 1010.6
20260506143100 79 165 0.0 3.5 0.00 0.00 0.00 88 1010.3
20260506141600 78 165 0.0 2.6 0.00 0.00 0.00 89 1010.4
20260506140059 78 165 0.9 4.3 0.00 0.00 0.00 90 1010.5
20260506134614 77 165 0.0 2.6 0.00 0.00 0.00 92 1010.6
20260506133114 76 0 0.0 0.9 0.00 0.00 0.00 93 1010.5
20260506131615 76 0 0.0 0.0 0.00 0.00 0.00 93 1010.7
20260506124608 75 0 0.0 0.0 0.00 0.00 0.00 94 1010.7
20260506123059 75 0 0.0 0.0 0.00 0.00 0.00 94 1010.6
20260506121601 74 0 0.0 0.0 0.00 0.00 0.00 93 1010.4
20260506120111 74 0 0.0 0.0 0.00 0.00 0.00 93 1010.4
20260506114558 74 0 0.0 0.0 0.00 0.00 0.00 93 1010.2
20260506113057 75 0 0.0 0.0 0.00 0.00 0.00 93 1009.9
20260506111600 75 0 0.0 3.5 0.00 0.00 0.00 93 1009.7
20260506110113 75 0 0.0 1.7 0.00 0.00 0.00 93 1009.6
20260506104613 75 165 0.0 0.9 0.00 0.00 0.00 93 1009.4
20260506103101 75 165 0.0 1.7 0.00 0.00 0.00 92 1009.6
20260506101558 75 165 0.0 1.7 0.00 0.00 0.00 92 1009.5
20260506100113 75 0 0.0 1.7 0.00 0.00 0.00 92 1009.4
20260506094603 75 165 0.0 1.7 0.00 0.00 0.00 91 1009.3
20260506093101 75 0 0.0 1.7 0.00 0.00 0.00 91 1009.2
20260506091607 76 165 0.0 1.7 0.00 0.00 0.00 90 1009.3
20260506090104 76 0 0.0 1.7 0.00 0.00 0.00 90 1009.5
20260506084631 76 0 0.0 0.9 0.00 0.00 0.00 90 1009.5
20260506083058 76 0 0.0 2.6 0.00 0.00 0.00 90 1009.6
20260506081600 76 165 0.0 2.6 0.00 0.00 0.00 89 1009.7
20260506073058 76 0 0.9 4.3 0.00 0.00 0.00 89 1010.0
20260506071600 77 165 0.9 3.5 0.00 0.00 0.00 89 1010.1
20260506061559 77 165 0.0 3.5 0.00 0.00 0.00 88 1010.4
20260506044559 77 165 0.0 0.9 0.00 0.00 0.00 87 1010.4
20260506043103 77 0 0.0 3.5 0.00 0.00 0.00 87 1010.4
20260506041609 77 165 0.9 2.6 0.00 0.00 0.00 87 1010.2
20260506040101 77 0 0.0 1.7 0.00 0.00 0.00 86 1010.3
20260506034600 78 165 0.0 4.3 0.00 0.00 0.00 85 1010.0
20260506033101 78 165 0.9 6.1 0.00 0.00 0.00 85 1009.9
20260506031557 78 166 0.9 3.5 0.00 0.00 0.00 84 1009.7
20260506030059 78 166 0.9 4.3 0.00 0.00 0.00 85 1009.7
20260506024605 78 166 1.7 5.2 0.00 0.00 0.00 84 1009.5
20260506023108 78 166 0.9 4.3 0.00 0.00 0.00 84 1009.4
20260506021622 78 166 0.9 5.2 0.00 0.00 0.00 83 1009.0
20260506020100 79 167 0.9 7.8 0.00 0.00 0.00 82 1008.9
20260506014557 79 167 0.0 5.2 0.00 0.00 0.00 82 1008.6
20260506013109 79 166 0.9 5.2 0.00 0.00 0.00 81 1008.4
20260506011615 79 167 0.0 7.0 0.00 0.00 0.00 80 1008.1
20260506010100 80 166 1.7 5.2 0.00 0.00 0.00 79 1008.1
20260506004601 80 167 0.9 6.1 0.00 0.00 0.00 78 1008.0
20260506003101 80 167 0.9 7.0 0.00 0.00 0.00 76 1007.8
20260506001603 81 167 1.7 5.2 0.00 0.00 0.00 75 1007.7
20260505234604 81 0 0.9 7.8 0.00 0.00 0.00 75 1007.7
20260505233106 81 166 2.6 7.0 0.00 0.00 0.00 75 1007.7
20260505231613 82 167 1.7 6.1 0.00 0.00 0.00 75 1007.6
20260505230100 82 167 2.6 7.8 0.00 0.00 0.00 75 1007.7
20260505224604 82 168 1.7 6.1 0.00 0.00 0.00 75 1007.7
20260505223059 82 167 2.6 7.0 0.00 0.00 0.00 75 1007.8
20260505221604 83 166 2.6 7.0 0.00 0.00 0.00 75 1007.9
20260505214601 83 166 1.7 7.8 0.00 0.00 0.00 73 1008.1
20260505213059 83 167 2.6 8.7 0.00 0.00 0.00 73 1008.2
20260505211557 83 166 2.6 6.1 0.00 0.00 0.00 74 1008.5
20260505210058 83 167 0.9 4.3 0.00 0.00 0.00 74 1008.8
20260505204600 83 167 2.6 7.8 0.00 0.00 0.00 73 1009.1
20260505203126 84 166 3.5 7.8 0.00 0.00 0.00 71 1009.1
20260505201604 84 0 1.7 5.2 0.00 0.00 0.00 73 1009.3
20260505200100 83 167 1.7 9.6 0.00 0.00 0.00 72 1009.5
20260505194604 84 167 0.9 6.1 0.00 0.00 0.00 74 1009.6